sat.trackr.live / text

‹ back to catalog

2023-091J

NORAD 57174 · 2023-091J

PAYLOAD ACTIVE UNKNOWN

§ Identity

Operator
Country
CIS
Launch date
2023-06-27
Launch site
VOSTO
Launch vehicle
Mass (kg)
RCS (m²)

External: N2YO · Heavens-Above · Gunter

§ Orbital elements

Epoch: 2026-09-21T22:23:50.281440Z

Period
95.08 min
Inclination
97.4957°
Eccentricity
0.0013419
Mean motion
15.14470203 rev/d
Perigee alt
513.3 km
Apogee alt
531.8 km
Semi-major
6,900.7 km
B*
1.0050e-4
RAAN
316.6330°
Arg perigee
166.8148°
Mean anomaly
193.3437°
Rev number
17,827

§ Raw data

2023-091J1 57174U 23091J   26264.93322085  .00001786  00000+0  10050-3 0  99912 57174  97.4957 316.6330 0013419 166.8148 193.3437 15.14470203178273

JSON: /api/v1/satellites/57174 · /tle

For live sub-satellite position, see the globe view (requires WebGL).

§ Visibility from observer

Set your observer location to see the next 7 days of passes ≥ 10°. The values pass through the URL so the page stays shareable.

No JS? Fill the form by hand. The geolocation button needs JavaScript.

§ Radio — SatNOGS DB

ModeDescriptionDownlinkUplink
DOKA DOKA 435.790 MHz
AFSK Mode U - Transmitter 435.790 MHz

2 transmitters · refreshed weekly from db.satnogs.org